Wind_Speed
31 32 28 24 23 18 15 12 9 7 6 5 4 3 5 5 5 4 3 5 7 8 12 16 21 17 6 7 3 25 26 14 18 19 25 7 10 6 10 15 25 20 11 13 16 15 15
38 35 33 28 24 21 16 13 12 9 6 5 4 3 5 6 5 4 2 4 7 8 11 16 17 15 5 7 16 21 20 24 27 23 16 17 13 17 12 6 6 9 20 17 14 13 6
43 38 36 31 28 23 18 15 13 11 7 6 5 4 5 5 6 4 2 2 7 7 9 14 13 9 8 1 16 18 16 21 20 23 16 19 11 8 6 18 6 14 24 10 5 5 8
44 41 39 35 30 24 20 17 15 12 9 7 7 4 5 3 6 6 3 1 5 6 8 11 9 7 2 13 9 17 16 23 24 30 33 33 34 13 7 8 7 6 5 5 5 2 5
43 43 42 38 33 27 22 19 16 15 10 9 7 5 6 2 5 7 3 2 4 6 7 9 5 5 3 8 12 16 15 8 24 27 25 23 21 10 9 8 5 7 4 7 2 3 3
42 45 45 41 37 29 25 23 17 17 13 11 9 6 6 3 3 5 4 2 8 7 5 4 6 6 7 5 7 12 9 12 13 10 11 12 7 7 4 4 4 4 6 3 2 3 8
44 45 46 44 39 32 29 25 20 18 14 13 12 9 5 3 2 0 4 3 3 7 13 4 2 2 2 6 11 16 9 6 9 11 6 6 7 13 7 4 5 8 6 6 2 4 6
49 46 46 46 42 35 30 27 23 18 16 15 13 11 6 4 4 3 5 2 1 6 7 6 3 3 3 3 8 18 14 6 8 5 4 8 5 6 2 7 8 8 12 4 2 4 5
51 49 48 49 44 38 33 30 25 20 17 17 14 12 9 7 8 5 6 2 2 3 6 3 1 3 2 6 4 9 7 3 8 8 6 7 2 5 4 7 11 4 8 6 6 3 6
54 53 49 49 46 40 37 33 27 23 20 19 16 13 11 10 8 6 4 1 2 2 5 2 2 2 4 3 6 6 6 4 7 5 4 7 5 4 6 8 4 4 1 5 9 4 3
45 53 49 51 49 44 41 35 28 25 22 21 17 13 13 15 9 5 5 2 2 3 3 2 1 1 4 7 1 7 15 8 5 4 3 2 5 6 9 3 2 4 3 5 4 5 5
40 52 52 54 51 48 43 37 31 27 24 24 20 16 15 14 7 7 7 4 4 7 4 3 2 2 5 5 3 2 6 9 4 7 8 3 2 4 1 3 4 6 6 8 5 3 2
27 56 58 57 54 51 45 39 33 28 27 25 21 18 14 12 8 9 7 5 5 4 4 4 4 3 4 3 4 3 3 4 4 6 3 6 4 5 4 5 5 6 6 3 3 3 5
34 55 56 56 52 50 48 41 36 30 30 27 22 20 12 8 10 8 5 6 5 2 4 1 4 6 4 4 3 2 4 3 2 6 4 5 2 4 5 2 4 2 4 5 6 3 3
34 50 58 59 57 52 51 42 37 32 33 29 25 17 7 7 8 5 6 4 8 6 4 6 5 5 2 2 5 4 2 6 4 5 6 5 1 2 4 2 3 2 1 1 6 3 2
33 46 60 61 56 56 54 45 40 38 36 33 27 10 2 10 7 5 5 6 4 4 3 2 4 4 5 5 3 3 6 3 4 1 3 6 5 1 1 2 5 3 4 4 3 1 3
30 51 62 61 63 57 56 48 44 44 39 32 17 4 1 13 5 5 4 5 4 5 4 5 3 5 5 6 5 4 6 0 2 2 4 4 4 2 1 2 5 2 1 5 3 3 4
44 52 65 64 62 61 57 50 48 49 45 27 7 3 3 15 3 1 3 5 4 3 3 4 3 4 6 6 5 3 6 1 4 6 4 1 5 4 2 1 1 2 3 5 4 4 1
35 32 68 67 65 64 60 57 54 54 49 24 3 3 4 6 5 2 3 3 2 4 5 5 3 3 2 5 6 4 3 2 2 3 7 5 1 3 4 3 4 3 3 4 4 3 5
35 28 69 68 69 67 64 58 59 58 43 32 4 3 3 4 1 6 5 5 4 4 4 4 4 4 5 4 6 5 3 3 2 3 7 6 3 5 6 5 4 3 3 3 5 4 3
40 37 68 69 67 66 67 63 63 61 41 28 3 4 5 6 6 4 6 8 6 5 3 4 1 6 8 5 4 4 2 3 4 3 4 4 3 2 2 1 3 4 4 7 6 5 5
30 59 69 70 66 66 68 67 66 62 46 10 5 4 2 5 10 5 6 6 12 3 6 4 6 5 4 7 8 9 8 4 5 4 3 2 2 1 2 1 1 3 5 8 5 2 7
22 67 68 69 65 69 69 67 67 63 44 9 5 5 5 5 8 6 5 6 9 7 3 2 10 6 4 2 4 6 5 6 7 8 4 4 6 3 2 3 2 7 9 10 5 3 6
24 63 68 69 67 70 69 69 72 59 39 26 13 8 4 2 10 14 12 5 7 5 7 2 4 6 1 15 10 11 14 11 9 7 4 5 5 3 3 2 1 4 2 7 6 5 7
44 63 67 68 67 74 72 71 69 47 38 28 21 6 3 3 8 13 10 6 5 4 3 4 4 1 20 4 5 5 5 5 5 6 6 3 4 3 4 3 5 1 3 6 7 6 6
57 64 69 68 70 71 69 68 63 51 37 27 19 10 5 7 8 9 12 7 5 4 3 3 5 8 5 3 4 4 4 4 1 2 5 5 5 4 2 4 6 3 2 5 4 4 6
67 67 68 69 72 73 69 62 63 50 36 28 15 13 6 4 2 5 7 15 5 4 4 5 5 1 3 2 3 3 2 4 5 7 5 3 2 5 2 2 7 5 2 2 4 5 5
67 67 70 69 74 71 66 61 58 50 31 25 11 9 5 3 1 1 1 5 4 3 5 6 4 3 3 4 3 3 3 5 3 5 6 6 6 3 3 3 7 1 1 6 3 3 5
63 67 67 69 69 70 64 61 63 39 32 22 9 20 18 11 3 5 8 7 1 1 6 2 3 4 5 5 1 3 3 2 5 3 2 3 6 5 7 5 1 2 2 1 2 5 3
Wind_Direction
230 234 232 232 235 235 240 248 258 267 258 263 267 290 308 330 335 346 29 48 64 48 17 3 4 355 10 42 352 345 360 45 73 102 85 90 58 82 90 101 80 84 93 86 97 86 86
229 231 232 233 228 232 234 242 250 261 243 238 239 274 296 326 301 334 6 85 88 59 16 1 3 12 39 60 343 353 14 57 74 90 80 85 97 102 85 51 73 124 102 101 100 89 69
227 229 231 227 228 225 232 238 246 255 238 220 220 254 280 327 288 317 331 115 105 62 17 3 15 8 55 2 357 8 30 48 69 103 101 109 114 79 110 87 44 113 104 82 14 68 121
227 227 228 229 224 224 229 236 242 247 241 212 212 232 268 303 287 301 315 160 104 65 20 7 5 12 78 4 21 30 47 67 85 85 96 105 92 93 69 106 54 82 52 85 226 199 2
224 225 227 228 225 222 223 226 235 244 236 208 206 222 265 276 287 296 318 160 93 87 33 14 23 51 355 8 15 9 21 34 78 85 79 93 82 82 70 96 54 11 103 119 244 19 135
221 225 225 226 224 219 220 224 229 240 234 206 192 203 246 262 268 290 304 157 93 100 43 20 34 54 10 312 345 343 37 60 50 50 44 28 51 93 51 70 182 150 104 114 156 347 47
221 221 223 223 223 218 219 221 221 233 234 211 190 188 211 238 190 316 325 247 33 10 44 104 279 157 347 344 54 18 4 28 44 47 49 20 69 142 151 152 129 111 87 104 40 17 77
222 219 222 220 220 217 217 219 221 225 227 210 198 188 163 210 148 111 2 41 256 157 88 46 64 22 50 17 35 350 11 68 57 60 6 41 44 330 39 136 105 101 113 80 74 16 93
218 219 219 220 218 214 213 217 218 219 220 203 194 196 149 187 145 96 82 57 8 147 90 7 38 41 341 58 63 339 21 69 76 50 39 102 5 345 75 86 104 39 135 162 150 98 52
219 216 215 221 217 212 212 214 214 214 212 197 191 196 147 173 136 129 102 60 8 269 79 308 13 12 17 100 56 14 27 100 42 117 74 75 330 60 65 74 50 83 235 127 125 92 165
223 208 220 220 217 211 211 211 212 209 205 189 189 185 162 168 144 147 142 167 18 340 63 266 79 353 43 83 157 4 34 37 78 58 79 295 19 40 55 11 34 157 79 107 105 92 105
229 214 216 217 216 211 207 207 208 202 197 183 183 179 173 158 143 143 147 144 52 40 238 150 81 92 67 27 40 11 48 52 137 67 39 62 12 50 58 46 42 146 69 42 46 69 360
249 214 214 212 213 211 201 203 203 197 189 181 175 173 169 150 152 152 144 78 49 127 300 179 144 124 87 79 67 59 45 46 126 93 20 19 355 330 33 66 37 58 66 16 4 5 220
240 210 208 212 209 214 199 199 198 190 185 176 169 159 152 147 160 154 126 62 98 234 202 140 124 103 126 145 44 65 86 98 33 86 103 140 306 4 344 74 169 71 145 150 201 200 267
241 214 206 206 213 209 194 195 191 185 178 168 159 152 148 119 149 147 81 77 196 195 182 156 82 101 113 76 119 92 53 172 178 173 130 139 44 323 57 49 88 170 141 133 107 16 39
240 215 209 206 207 208 193 192 185 177 172 162 148 135 34 115 118 96 78 184 190 190 134 181 126 141 148 155 93 114 186 197 155 201 129 194 104 302 289 104 54 126 129 62 2 118 278
247 212 205 200 203 206 189 187 181 172 165 154 142 86 206 111 112 52 160 202 198 212 174 174 143 125 143 141 132 165 186 191 148 70 77 131 99 257 116 179 168 110 68 61 121 127 171
227 204 201 196 194 197 188 183 179 167 161 160 117 93 160 152 81 28 173 192 172 169 161 239 133 110 139 144 126 142 177 188 145 152 131 116 122 130 184 156 124 133 158 144 119 252 197
231 212 197 193 195 197 189 181 175 166 166 149 86 92 22 167 155 230 268 233 164 147 185 181 171 135 120 132 113 129 123 350 89 109 161 184 52 73 3 6 354 186 97 117 122 93 201
237 234 193 191 190 195 188 178 172 167 163 152 92 101 352 35 56 158 154 199 175 182 199 150 126 86 104 81 40 138 124 14 35 94 78 85 97 162 186 197 135 153 178 183 129 123 183
233 220 188 184 183 194 184 176 169 168 166 152 91 188 182 183 212 188 153 182 161 175 194 156 131 168 141 117 95 122 123 130 50 111 57 96 125 89 253 116 151 175 173 180 183 180 163
243 195 190 185 181 189 181 173 169 168 167 140 130 137 67 177 157 151 166 202 177 187 145 191 155 145 120 146 181 185 143 183 177 81 85 36 142 141 9 120 264 272 216 194 219 201 261
257 186 182 181 180 187 181 178 172 170 172 136 133 100 115 148 152 146 190 175 198 152 31 137 150 114 95 112 97 93 82 97 136 131 129 115 133 108 268 356 358 301 215 184 184 188 150
232 183 179 180 176 177 178 176 173 175 180 172 164 120 101 203 164 190 169 160 188 206 139 85 87 99 122 136 99 60 59 66 65 54 95 124 107 103 165 30 354 246 189 189 169 182 192
198 182 176 176 179 179 175 174 174 177 171 163 162 141 129 115 164 171 175 160 100 55 73 91 7 152 158 67 71 55 2 33 7 30 39 77 117 77 135 196 292 230 188 146 175 230 189
186 176 172 171 172 171 170 172 176 168 172 173 166 157 122 122 208 153 164 164 161 149 56 68 14 93 68 84 81 132 171 169 207 88 64 67 66 108 122 139 218 239 298 156 137 292 166
181 175 170 169 174 172 169 170 175 174 169 166 173 172 129 110 334 144 164 183 142 107 105 120 152 130 45 84 89 139 183 166 167 158 163 105 29 146 144 190 283 238 256 175 102 235 151
169 168 171 168 170 167 167 169 170 168 168 173 156 136 117 100 93 135 40 137 125 147 140 174 84 329 47 75 122 193 130 208 121 158 170 163 150 187 92 91 269 360 154 163 193 54 125
168 168 166 165 163 165 167 169 170 163 171 178 109 103 93 77 131 99 85 63 343 138 127 12 146 163 171 94 81 114 116 115 152 212 124 208 181 182 177 213 339 326 263 43 98 123 125
Height
810 814 815 817 823 826 827 827 828 828 827 828 831 830 831 831 830 831 826 825 826 827 828 827 822 819 817 822 830 823 816 809 803 800 803 810 822 833 849 859 862 874 885 887 891 895 898
807 810 813 816 819 824 825 826 827 828 826 827 830 831 830 830 831 830 828 825 826 827 829 828 824 822 821 836 829 825 819 812 808 802 808 808 830 836 851 864 869 884 888 895 897 899 903
802 806 809 812 818 821 823 824 826 828 826 826 830 830 830 829 831 830 829 827 826 827 830 829 826 826 828 834 829 826 823 818 817 813 814 822 826 833 855 869 878 886 893 903 905 905 911
794 799 805 809 812 817 820 822 825 827 826 825 830 829 830 829 830 831 829 828 826 827 830 829 827 828 835 832 830 827 826 825 823 821 818 825 829 841 860 871 886 893 900 915 908 906 910
787 793 799 804 809 815 818 820 823 827 826 826 828 829 831 829 830 832 830 830 827 827 830 829 830 830 839 834 833 833 831 830 830 829 828 829 830 854 868 885 900 907 914 915 909 906 906
780 787 793 800 804 811 814 819 821 826 825 825 826 828 831 830 830 832 831 831 828 828 830 830 833 839 840 844 838 837 834 832 834 834 838 844 856 872 888 892 905 904 916 912 912 912 916
774 781 787 794 800 807 813 816 819 823 824 826 825 826 830 831 830 833 832 832 832 835 834 844 846 846 844 843 841 840 837 836 839 850 867 865 879 880 889 885 888 902 910 916 917 914 921
768 774 781 788 795 802 808 812 817 819 823 825 826 826 828 831 831 833 834 835 833 833 846 843 844 844 844 844 847 844 841 847 857 873 869 880 895 891 887 890 891 898 910 920 917 915 920
762 767 775 782 789 798 805 810 814 816 819 824 827 828 826 831 831 833 835 837 834 834 847 847 846 847 847 847 857 855 850 858 869 882 885 894 893 888 890 897 899 908 911 917 917 920 924
753 760 768 775 784 792 800 806 810 814 819 823 826 828 826 830 835 834 836 838 836 836 864 857 852 850 849 850 861 856 856 861 874 888 890 898 896 894 898 902 903 909 905 910 918 926 938
747 752 761 768 778 787 795 802 806 811 816 820 824 828 827 832 831 835 837 838 836 840 886 860 854 851 851 857 863 862 860 862 883 890 889 905 901 901 905 906 902 910 907 910 914 928 934
744 747 754 762 771 780 789 798 804 809 814 818 823 828 830 828 832 835 836 838 838 885 891 862 855 858 860 862 866 866 867 866 881 892 898 906 903 905 904 904 906 908 914 924 932 934 947
738 739 747 754 761 774 783 793 800 805 812 816 821 828 831 829 834 835 835 838 881 899 860 865 861 860 864 868 871 871 877 884 895 908 907 911 912 910 906 907 907 915 929 969 948 966 950
733 731 740 748 759 768 778 787 797 802 811 816 822 827 829 831 834 835 834 857 893 870 864 856 858 863 870 869 874 877 881 892 891 899 924 921 925 916 913 912 914 918 925 959 945 953 935
724 727 733 742 751 762 770 780 792 799 809 815 821 827 831 832 833 834 844 894 876 864 855 861 858 866 872 872 875 879 885 892 888 893 903 921 920 914 914 912 914 917 933 932 944 952 945
717 721 726 734 744 754 765 775 787 796 807 814 818 826 833 831 834 837 861 863 854 849 849 853 861 862 877 876 879 882 888 885 888 887 893 905 921 916 914 912 918 917 929 945 972 958 960
711 715 718 728 737 745 756 769 784 793 805 813 818 830 834 829 840 849 879 860 848 843 844 850 856 862 868 873 879 882 887 884 884 890 894 904 916 923 915 919 922 929 936 946 953 959 958
704 707 711 721 730 740 751 762 781 787 803 809 814 840 834 834 855 872 872 847 838 838 842 845 847 853 862 867 875 880 885 883 882 887 892 900 923 933 917 919 920 920 922 932 969 961 960
694 699 703 713 723 732 746 760 772 781 793 798 817 834 837 834 856 868 852 841 835 837 841 843 846 845 853 865 876 879 883 887 883 885 895 899 923 954 923 924 927 920 942 963 967 953 943
689 693 696 706 717 726 740 753 766 776 788 798 820 844 844 842 848 847 844 842 839 834 837 837 847 848 857 867 872 883 885 888 885 887 891 895 918 926 919 919 934 949 949 962 953 967 947
682 686 691 701 710 720 733 748 759 772 784 793 814 832 827 843 847 843 839 839 840 839 835 837 844 845 852 870 874 884 887 887 887 887 895 898 921 933 931 917 918 920 929 942 947 935 929
676 678 684 695 706 715 729 742 756 770 782 787 811 819 824 827 833 839 839 841 837 836 836 838 845 848 848 861 859 881 881 885 881 891 897 906 928 914 924 915 917 914 918 928 928 923 928
669 669 679 689 700 711 720 740 753 765 775 779 794 800 807 827 831 841 843 838 835 834 837 835 842 847 851 855 858 863 870 876 878 887 902 906 920 930 928 920 915 922 906 917 915 913 913
655 664 674 684 697 707 723 738 749 762 770 774 785 794 811 833 824 826 832 832 835 836 838 841 841 845 861 860 859 867 876 883 887 893 897 910 918 934 948 924 942 891 891 894 900 904 907
653 662 671 681 692 704 721 736 750 761 768 780 789 795 807 826 819 825 830 832 837 840 842 842 847 845 851 859 880 892 903 895 901 900 899 904 920 949 949 936 906 887 893 898 898 898 901
646 659 668 680 691 701 720 733 748 758 773 784 791 795 798 814 822 817 826 833 846 848 848 852 852 853 856 877 887 908 901 899 907 900 899 906 913 924 950 944 932 892 886 887 890 900 900
642 654 664 677 687 700 717 736 748 764 774 782 790 792 793 810 817 816 825 825 833 840 852 853 854 856 860 882 899 902 899 891 901 900 909 912 927 943 958 944 909 892 886 886 903 905 900
638 650 662 675 687 701 718 736 750 761 773 781 788 787 785 809 819 817 819 822 829 831 843 851 860 863 873 882 891 902 900 899 893 891 895 900 923 943 947 958 918 892 886 892 897 900 901
634 649 661 674 687 704 719 734 750 764 774 780 784 786 784 799 817 819 821 821 820 822 833 849 844 850 857 876 891 892 898 904 891 898 889 895 897 906 908 904 896 897 894 893 895 898 904